Austin, TX

1:42 PM CST on February 26, 2017 (GMT -0600)
Austin

Weather History for KATT - March, 2014

Change the Weather History Date:

Thursday, March 27, 2014

  Actual Average Record
Temperature  
Mean Temperature 72 °F 64 °F  
Max Temperature 82 °F 75 °F 96 °F (1984)
Min Temperature 61 °F 54 °F 31 °F (1955)
Degree Days  
Heating Degree Days 0 3  
Month to date heating degree days 222 149  
Since 1 July heating degree days 1718 1486  
Cooling Degree Days 7 3  
Month to date cooling degree days 24 47  
Year to date cooling degree days 65 74  
Growing Degree Days 21 (Base 50)    
Moisture  
Dew Point 63 °F    
Average Humidity 78    
Maximum Humidity 100    
Minimum Humidity 55    
Precipitation  
Precipitation 0.01 in 0.08 in 2.69 in (1980)
Month to date precipitation 1.27 2.43  
Year to date precipitation 2.10 6.67  
Snow  
Snow 0.00 in - - ()
Month to date snowfall T  
Since 1 July snowfall 0.2  
Snow Depth 0.00 in    
Sea Level Pressure  
Sea Level Pressure 29.83 in    
Wind  
Wind Speed 8 mph (South)    
Max Wind Speed 16 mph    
Max Gust Speed 26 mph    
Visibility 7 miles    
Events Rain    
T = Trace of Precipitation, MM = Missing Value Source: NWS Daily Summary

Daily Weather History Graph

Daily Weather History Graph

Search for Another Location

Airport or City:

Trip Planner

Search our weather history database for the weather conditions in past years. The results will help you decide how hot, cold, wet, or windy it might be!

Date:

Astronomy

Mar. 27, 2014 Rise Set
Actual Time 7:26 AM CDT 7:46 PM CDT
Civil Twilight 7:02 AM CDT 8:10 PM CDT
Nautical Twilight 6:34 AM CDT 8:39 PM CDT
Astronomical Twilight 6:05 AM CDT 9:07 PM CDT
Moon 5:04 AM CDT (3/27) 4:47 PM CDT (3/27)
Length of Visible Light 13h 08m
Length of Day
12h 20m
Waning Crescent, 13% of the Moon is Illuminated
Mar 27
Waning Crescent
Mar 30
New
Apr 7
First Quarter
Apr 15
Full
Apr 22
Last Quarter

Hourly Weather History & Observations

Time (CDT) Temp. Heat Index Dew Point Humidity Pressure Visibility Wind Dir Wind Speed Gust Speed Precip Events Conditions
12:27 AM 62.1 °F - 55.9 °F 80% 29.95 in 10.0 mi South 10.4 mph 28.8 mph N/A   Overcast
12:51 AM 62.1 °F - 55.9 °F 80% 29.93 in 10.0 mi South 9.2 mph 18.4 mph N/A   Overcast
1:51 AM 61.0 °F - 57.0 °F 87% 29.90 in 8.0 mi South 12.7 mph 20.7 mph 0.00 in   Overcast
2:38 AM 61.0 °F - 57.9 °F 90% 29.90 in 9.0 mi SSE 9.2 mph 21.9 mph N/A   Overcast
2:51 AM 61.0 °F - 57.9 °F 90% 29.88 in 6.0 mi SSE 10.4 mph 25.3 mph N/A   Overcast
3:51 AM 61.0 °F - 57.9 °F 90% 29.85 in 9.0 mi South 11.5 mph 20.7 mph N/A   Overcast
4:13 AM 62.1 °F - 57.0 °F 84% 29.85 in 10.0 mi SSE 8.1 mph 18.4 mph N/A   Overcast
4:51 AM 62.1 °F - 57.0 °F 84% 29.84 in 9.0 mi Variable 5.8 mph - N/A   Overcast
5:31 AM 61.0 °F - 57.9 °F 90% 29.84 in 4.0 mi South 6.9 mph - 0.00 in   Overcast
5:51 AM 61.0 °F - 59.0 °F 93% 29.83 in 2.5 mi South 5.8 mph - 0.00 in   Overcast
6:16 AM 61.0 °F - 59.0 °F 93% 29.83 in 1.8 mi South 6.9 mph - N/A   Overcast
6:47 AM 60.8 °F - 60.8 °F 100% 29.84 in 1.5 mi South 9.2 mph - 0.01 in   Overcast
6:51 AM 61.0 °F - 60.1 °F 97% 29.83 in 1.8 mi SSE 9.2 mph - 0.01 in   Overcast
7:51 AM 62.1 °F - 61.0 °F 96% 29.83 in 1.2 mi South 8.1 mph - N/A   Overcast
8:31 AM 63.0 °F - 62.1 °F 97% 29.85 in 0.8 mi South 8.1 mph - N/A   Overcast
8:51 AM 63.0 °F - 62.1 °F 97% 29.83 in 0.8 mi SSE 6.9 mph - N/A   Overcast
9:27 AM 64.0 °F - 63.0 °F 96% 29.86 in 1.0 mi South 6.9 mph - N/A   Overcast
9:51 AM 64.9 °F - 63.0 °F 93% 29.85 in 1.5 mi South 8.1 mph - N/A   Overcast
10:36 AM 64.9 °F - 64.0 °F 97% 29.87 in 2.0 mi Variable 4.6 mph - N/A   Overcast
10:51 AM 66.0 °F - 64.0 °F 93% 29.86 in 2.0 mi South 4.6 mph - N/A   Overcast
11:20 AM 66.0 °F - 64.9 °F 96% 29.88 in 3.0 mi South 4.6 mph - 0.00 in Rain Light Rain
11:33 AM 66.9 °F - 64.9 °F 93% 29.88 in 4.0 mi Variable 5.8 mph - 0.00 in   Overcast
11:51 AM 68.0 °F - 66.0 °F 93% 29.86 in 8.0 mi South 6.9 mph - 0.00 in   Overcast
12:41 PM 69.1 °F - 66.9 °F 93% 29.87 in 10.0 mi South 6.9 mph - N/A   Overcast
12:51 PM 70.0 °F - 66.9 °F 90% 29.85 in 10.0 mi Variable 6.9 mph - N/A   Overcast
1:44 PM 71.1 °F - 66.0 °F 84% 29.85 in 10.0 mi SW 5.8 mph - N/A   Overcast
1:51 PM 71.1 °F - 66.0 °F 84% 29.83 in 10.0 mi Variable 4.6 mph - N/A   Overcast
2:28 PM 75.9 °F - 68.0 °F 76% 29.82 in 10.0 mi SSW 10.4 mph 16.1 mph 0.00 in   Mostly Cloudy
2:51 PM 75.9 °F - 66.0 °F 71% 29.78 in 10.0 mi South 8.1 mph 20.7 mph 0.00 in   Scattered Clouds
3:46 PM 80.6 °F 82.3 °F 64.4 °F 58% 29.77 in 10.0 mi Variable 5.8 mph 18.4 mph N/A   Mostly Cloudy
3:51 PM 82.0 °F 83.8 °F 64.9 °F 56% 29.74 in 10.0 mi SSW 9.2 mph 18.4 mph N/A   Scattered Clouds
4:51 PM 79.0 °F - 63.0 °F 58% 29.74 in 10.0 mi South 8.1 mph 16.1 mph N/A   Mostly Cloudy
5:51 PM 80.1 °F 81.7 °F 64.0 °F 58% 29.73 in 10.0 mi Variable 6.9 mph - N/A   Partly Cloudy
6:51 PM 78.1 °F - 63.0 °F 60% 29.73 in 10.0 mi South 5.8 mph - N/A   Clear
7:51 PM 75.9 °F - 63.0 °F 64% 29.74 in 10.0 mi SSE 5.8 mph - N/A   Clear
8:51 PM 73.9 °F - 64.0 °F 71% 29.76 in 10.0 mi SSE 8.1 mph - N/A   Clear
9:51 PM 72.0 °F - 66.0 °F 81% 29.77 in 10.0 mi Variable 5.8 mph - N/A   Clear
10:51 PM 71.1 °F - 66.9 °F 87% 29.78 in 8.0 mi SSE 8.1 mph - N/A   Clear
11:25 PM 70.0 °F - 66.9 °F 90% 29.80 in 7.0 mi SSE 5.8 mph - N/A   Mostly Cloudy
11:33 PM 70.0 °F - 66.9 °F 90% 29.80 in 6.0 mi Variable 5.8 mph - N/A   Mostly Cloudy
11:51 PM 70.0 °F - 66.9 °F 90% 29.78 in 5.0 mi South 5.8 mph - N/A   Overcast